Regional Weather Roundup
Issued by NWS

Home | Current Version | Previous Version | Graphics & Text | Print | Product List | Glossary On
Versions: 1 2 3 4 5 6 7 8 9 10 11 12 13 14 15 16 17 18 19 20 21 22 23 24 25 26 27 28 29 30 31 32 33 34 35 36 37 38 39 40 41 42 43 44 45 46 47 48 49 50
000
ASUS43 KDTX 200710
RWRMI
MICHIGAN HOURLY REGIONAL WEATHER ROUNDUP
NATIONAL WEATHER SERVICE DETROIT/PONTIAC MI
200 AM EST SAT DEC 20 2014

NOTE: "FAIR" INDICATES FEW OR NO CLOUDS BELOW 12,000 FEET WITH NO
SIGNIFICANT WEATHER AND/OR OBSTRUCTION TO VISIBILITY.

MIZ047>049-052>055-059>063-066>070-074>076-081>083-200800-
SOUTHEAST LOWER MICHIGAN

CITY           SKY/WX    TMP DP  RH WIND       PRES   REMARKS
ADRIAN         CLOUDY    29  23  78 CALM      30.27S
ALMA           CLEAR     17  17  98 CALM      30.28S FOG
ANN ARBOR      CLOUDY    27  21  78 CALM      30.27S
BAD AXE        CLEAR     15  14  96 CALM      30.28R
CARO           CLEAR     15  12  90 CALM      30.28S
DETROIT CITY   CLEAR     22  16  78 CALM      30.28S
DETROIT        CLOUDY    25  21  85 CALM      30.29S
FLINT          CLEAR     19  15  84 CALM      30.28S
GROSSE ILE     CLOUDY    27  21  80 CALM      30.27S
HILLSDALE      CLOUDY    26  25  96 CALM      30.23S FOG
HOWELL         PTCLDY    17  16  97 CALM      30.25F

CITY           SKY/WX    TMP DP  RH WIND       PRES   REMARKS
JACKSON        PTCLDY    21  18  88 CALM      30.25S
LAMBERTVILLE   CLOUDY    32  25  74 S3        30.28R
LANSING        CLEAR     18  14  84 CALM      30.27S
LAPEER         FAIR      16  15  94 CALM      30.28S
MASON          CLEAR     19  18  94 CALM      30.26S
MONROE         CLOUDY    28  23  80 CALM      30.26S
MT. CLEMENS    CLOUDY    24  23  98 W3        30.27R
PONTIAC        CLEAR     18  15  88 CALM      30.25S
PORT HOPE        N/A     24  20  84 SW5       30.26R WCI  18
PORT HURON     CLOUDY    18  18 100 CALM      30.28S
TRI CITIES     CLEAR     21  17  84 SW5       30.29R WCI  15
TROY           PTCLDY    24  19  84 CALM      30.29S
SAGINAW HB     CLEAR     19  19 100 CALM      30.29R
$$
MIZ043>046-050>051-056>058-064>065-071>073-077>080-200800-
SOUTHWEST LOWER MICHIGAN

CITY           SKY/WX    TMP DP  RH WIND       PRES   REMARKS
BATTLE CREEK   CLEAR     19  16  88 CALM      30.26R
BENTON HARBOR  MOCLDY    27  21  78 CALM      30.27R
BIG RAPIDS     PTCLDY    16  15  96 CALM      30.25S
COLDWATER      CLOUDY    24  23  95 MISG      30.25S FOG
FREMONT        FAIR      22  20  91 E3        30.26S
HOLLAND        PTCLDY    24  19  81 CALM      30.27S
GRAND RAPIDS   CLEAR     20  17  88 CALM      30.26S
IONIA          FAIR      20  19  98 CALM      30.26S
KALAMAZOO      PTCLDY    22  18  85 CALM      30.26S FOG
LUDINGTON      MOCLDY    20  17  89 CALM      30.28S
MARSHALL       PTCLDY    17  15  94 CALM      30.25R
MOUNT PLEASANT CLEAR     17  16  94 CALM      30.27S
MUSKEGON       PTCLDY    21  16  81 CALM      30.27S
SOUTH HAVEN    PTCLDY    22  19  89 CALM      30.26S
$$
MIZ016>042-200800-
NORTHERN LOWER MICHIGAN

CITY           SKY/WX    TMP DP  RH WIND       PRES   REMARKS
ALPENA         CLEAR     10   6  84 CALM      30.27F
BEAVER ISLAND  CLOUDY    14  13  94 CALM      30.26S
BELLAIRE       CLOUDY    24  22  91 CALM      30.27S
CADILLAC       PTCLDY     5   2  87 CALM      30.23S
CHARLEVOIX     CLOUDY    24  22  89 SE5       30.29S WCI  19
FRANKFORT      CLOUDY    28  24  86 CALM      30.27R
GAYLORD        FOG        5   4  95 CALM      30.22S VSB 1/4
GRAYLING       CLEAR      3   0  86 CALM      30.25S
HARBOR SPRINGS PTCLDY    12   9  89 NE3       30.26S
HOUGHTON LAKE  CLEAR      7   3  84 CALM      30.25R
MANISTEE       CLOUDY    25  19  80 E3        30.27F
OSCODA         CLEAR      8   6  90 CALM      30.27S
PELLSTON       PTCLDY     0  -4  83 CALM      30.27S
ROGERS CITY    CLEAR     11  11  97 SW3       30.27F
TRAVERSE CITY  CLOUDY    27  20  75 S3        30.27R
$$
MIZ007>008-015-200800-
EASTERN UPPER MICHIGAN

CITY           SKY/WX    TMP DP  RH WIND       PRES   REMARKS
KINROSS        PTCLDY     9   7  92 CALM      30.26S
MACKINAC ISLAN PTCLDY    17  17  98 NE3       30.26S
NEWBERRY       CLOUDY    23  20  89 CALM      30.24S
S. S. MARIE    PTCLDY    15  11  83 E5        30.26R WCI   8
MUNISING         N/A     21  16  81 S3        30.25S
$$
MIZ004>006-011>014-085-200800-
CENTRAL UPPER MICHIGAN

CITY           SKY/WX    TMP DP  RH WIND       PRES   REMARKS
MANISTIQUE     CLOUDY    24  20  85 CALM      30.26S
ESCANABA       PTCLDY    12   7  79 CALM      30.25S
MENOMINEE      PTCLDY    14  10  85 CALM      30.26R
SAWYER-GWINN   FOG       11   8  89 CALM      30.20F VSB 3/4
$$
MIZ001>003-009>011-084-200800-
WESTERN UPPER MICHIGAN

CITY           SKY/WX    TMP DP  RH WIND       PRES   REMARKS
IRON MOUNTAIN  CLOUDY    14  10  84 CALM      30.21S
HOUGHTON       CLOUDY    22  17  81 S5        30.18F WCI  16
COPPER HARBOR    N/A     27  21  78 SW5       30.21F WCI  22
IRONWOOD       CLOUDY    25  21  86 CALM      30.14F
$$

ABBREVIATIONS USED IN REMARKS
   TC - TEMPERATURE IN CELSIUS
  WCI - WIND CHILL INDEX
   HX - HEAT INDEX
  VSB - VISIBILITY




USA.gov is the U.S. government's official web portal to all federal, state and local government web resources and services.